Temp
10 10 10 10 10 10 10 10 10 10 10 10 11 11 11 11 11 11 11 11 11 11 11 11 11 11 11 11 11 11 11 11 11 10 10 10 11 11 10 10 10 10 10 10 10 10 10 10 10 10 11 11 11 11 10 10 10 10 10 10 10 10 10 10 10 10 10 10 10
10 10 10 10 10 10 10 10 10 10 10 10 10 11 11 11 11 11 11 11 11 11 11 11 11 11 11 11 11 11 11 10 10 10 10 10 11 11 10 10 10 10 10 10 10 10 10 10 10 10 10 10 10 10 10 10 10 10 10 10 10 10 10 10 10 10 10 10 10
10 10 10 10 10 10 10 10 10 10 10 10 11 11 11 11 11 11 11 11 11 10 10 11 11 11 11 11 11 10 10 10 10 10 10 10 10 10 10 10 10 10 10 10 10 10 10 10 10 10 10 10 10 10 10 10 10 10 10 10 10 10 10 10 10 10 10 10 10
10 10 10 11 11 11 10 10 10 10 10 10 11 11 11 11 11 11 10 10 10 10 10 10 11 11 10 10 10 10 10 10 10 10 10 10 10 10 10 10 10 10 10 10 10 10 10 10 10 10 10 9 10 10 10 10 10 10 10 10 10 10 10 10 10 10 10 10 10
10 10 10 11 11 10 10 10 10 10 10 10 10 10 10 10 10 10 10 10 10 9 10 10 10 10 10 10 10 10 10 10 10 10 10 10 10 10 10 10 10 10 10 10 10 10 10 9 9 9 9 9 10 10 10 10 10 10 10 10 10 10 10 10 10 10 10 10 10
10 10 10 10 10 10 10 10 10 10 10 10 10 10 10 10 10 10 10 9 9 9 9 9 9 9 9 9 9 9 9 9 9 9 9 10 10 10 10 10 10 10 10 10 9 9 9 9 9 10 10 10 10 10 10 10 10 10 10 10 10 10 10 10 10 10 10 10 10
10 10 10 10 10 10 10 10 10 10 10 10 10 10 10 9 9 9 9 9 9 9 9 9 9 9 9 9 9 9 9 9 9 9 9 9 9 9 9 9 9 9 10 10 10 10 10 10 10 10 10 10 10 10 10 10 10 10 10 10 10 10 10 10 10 9 9 9 9
10 10 10 10 10 9 9 9 9 9 9 9 9 9 9 9 9 10 9 9 9 9 9 9 9 9 9 9 9 9 9 9 9 9 8 8 8 8 8 9 10 10 10 10 10 10 10 10 10 10 10 10 10 10 10 10 10 10 10 10 10 9 9 9 9 9 9 9 9
9 9 9 9 9 9 9 9 9 9 9 9 9 9 9 9 9 9 9 9 9 9 9 9 9 9 9 9 9 9 9 9 8 8 7 7 8 8 9 10 10 10 10 11 11 10 10 10 10 10 10 10 10 10 10 10 10 9 9 9 9 9 9 9 9 9 9 8 8
8 8 8 8 8 8 9 9 9 9 9 9 9 9 9 9 9 9 9 9 9 9 9 9 9 9 8 8 8 8 8 8 7 7 7 7 8 8 9 9 10 10 10 10 10 10 10 10 10 10 10 10 10 10 9 9 9 9 9 9 9 9 9 9 8 8 8 8 8
8 8 8 8 8 9 9 9 9 9 9 9 9 9 9 9 9 9 9 9 9 9 9 9 9 9 8 8 8 7 7 7 7 7 7 7 8 8 9 9 9 10 10 10 10 10 10 10 10 10 10 9 9 9 9 9 9 9 9 9 9 9 8 8 8 8 8 8 8
8 8 8 8 9 9 9 9 9 9 9 8 8 8 9 9 9 9 9 9 9 9 9 8 8 8 8 7 7 7 7 7 7 7 7 8 8 9 9 9 9 10 10 10 10 10 9 9 9 9 9 9 9 9 9 9 9 9 9 8 8 8 8 8 8 8 8 8 8
8 8 8 8 8 8 9 9 8 8 8 8 8 8 8 8 8 8 8 8 8 8 8 7 7 7 7 7 7 7 7 7 7 8 8 9 9 9 9 9 9 9 9 9 9 9 9 9 9 9 9 9 9 9 8 8 8 8 8 8 8 8 8 8 8 8 7 7 7
8 8 8 8 8 8 8 8 8 8 8 8 8 8 8 8 8 8 8 8 7 7 7 7 6 6 6 7 7 7 8 8 9 9 9 9 9 9 9 9 9 9 9 9 9 9 9 9 9 8 8 8 8 8 8 8 8 8 8 8 8 8 7 7 7 7 7 7 7
7 8 8 8 8 8 8 8 9 9 9 8 8 8 8 8 8 8 7 7 7 7 7 7 7 7 7 8 8 8 9 9 9 9 9 9 9 9 9 9 9 9 9 8 8 8 8 8 8 8 8 8 8 8 7 7 7 7 7 7 7 7 7 7 7 7 7 7 7
7 7 7 8 8 8 8 9 9 8 8 8 8 8 8 8 7 7 7 7 7 7 7 7 8 8 8 8 9 9 9 9 9 9 9 9 8 8 8 8 8 8 8 8 8 8 8 8 8 8 7 7 7 7 7 7 7 7 7 7 7 7 7 7 7 7 7 7 7
7 7 7 7 8 8 8 8 8 8 8 8 8 7 7 7 7 7 7 7 8 8 8 8 8 8 8 8 8 8 8 8 8 8 8 8 8 8 8 8 8 8 8 8 8 8 8 7 7 7 7 7 7 7 7 7 7 7 7 7 7 7 7 7 6 6 6 6 6
7 7 7 7 8 8 8 8 8 8 8 8 8 8 8 8 8 8 8 8 8 8 8 8 8 8 8 8 8 8 8 8 8 8 8 8 8 8 8 8 8 7 7 7 7 7 7 7 7 7 7 7 7 7 7 7 7 7 7 7 6 6 6 6 6 6 6 6 5
7 7 8 8 8 8 8 8 8 8 8 8 8 8 7 7 7 8 8 8 8 8 8 8 8 8 8 8 8 8 8 7 7 7 7 7 7 7 7 7 7 7 7 7 7 7 7 7 7 7 7 7 7 7 7 7 7 6 6 6 6 6 6 5 5 5 5 5 5
7 7 7 7 7 7 7 7 7 7 7 7 7 7 7 7 7 7 7 7 7 7 7 7 7 7 7 7 7 7 7 7 7 7 7 7 7 7 7 7 7 7 7 7 7 7 7 7 7 7 7 7 6 6 6 6 6 6 6 5 5 5 5 5 5 5 4 4 4
7 7 7 7 7 7 7 7 7 7 7 7 7 7 7 7 7 7 7 7 7 7 7 7 7 7 7 7 7 7 7 7 7 7 7 7 7 7 7 7 7 7 7 7 7 7 7 6 6 6 6 6 6 6 6 5 5 5 5 5 5 5 4 4 4 4 4 4 4
7 7 7 7 7 7 7 7 7 7 7 7 7 7 7 7 7 7 7 7 7 7 7 7 7 7 7 7 7 7 7 7 7 7 7 7 7 7 7 7 7 6 6 6 6 6 6 6 5 5 5 5 5 5 5 5 4 4 4 4 4 4 4 4 4 4 3 3 3
7 7 7 7 7 7 7 7 7 7 7 7 7 7 7 7 7 7 7 7 7 7 7 7 7 7 7 7 7 7 7 7 7 7 6 6 6 6 6 6 6 5 5 5 5 5 5 5 5 4 4 4 4 4 4 4 4 4 4 4 4 3 3 3 3 3 3 3 3
6 6 6 6 6 6 6 6 6 6 6 6 6 6 6 6 6 6 6 6 6 6 6 6 6 6 6 6 6 6 6 6 6 6 6 5 5 5 5 5 5 5 4 4 4 4 4 4 4 4 4 4 4 3 3 3 3 3 3 3 3 3 3 3 3 3 3 3 2
6 6 6 6 6 6 6 6 6 6 6 6 6 6 6 6 6 6 6 6 6 6 6 6 6 6 6 6 5 5 5 5 5 5 5 5 4 4 4 4 4 4 4 4 4 3 3 3 3 3 3 3 3 3 3 3 3 3 3 3 3 3 3 2 2 2 2 2 2
6 6 6 6 6 6 6 6 6 6 6 6 6 6 6 6 6 5 5 5 5 5 5 5 5 5 5 5 5 5 5 5 4 4 4 4 4 4 4 4 4 3 3 3 3 3 3 3 3 3 3 3 3 3 3 3 3 2 2 2 2 2 2 2 2 2 2 2 2
5 5 5 5 5 5 5 5 5 5 5 5 5 5 5 5 5 5 5 5 5 5 5 5 5 5 5 5 5 4 4 4 4 4 4 4 4 3 3 3 3 3 3 3 3 3 3 3 2 2 2 2 2 2 2 2 2 2 2 2 2 2 2 2 2 2 2 2 2
5 5 5 5 5 5 5 5 5 5 5 5 5 5 5 5 5 5 5 5 5 5 5 5 5 5 4 4 4 4 4 4 4 4 3 3 3 3 3 3 3 3 3 3 3 3 3 2 2 2 2 2 2 2 2 2 2 2 2 2 2 2 2 2 1 1 1 1 1
5 5 5 5 5 5 5 5 5 5 5 5 5 5 5 5 5 5 5 5 5 4 4 4 4 4 4 4 4 4 3 3 3 3 3 3 3 3 3 3 3 3 3 3 3 3 2 2 2 2 2 2 2 2 2 2 2 2 1 1 1 1 1 1 1 1 1 1 1
5 5 5 5 5 5 5 5 5 5 5 5 5 5 5 5 5 4 4 4 4 4 4 4 4 4 3 3 3 3 3 3 3 3 3 3 3 3 3 3 3 3 3 3 2 2 2 2 2 2 2 1 1 1 1 1 1 1 1 1 1 1 1 1 1 1 1 1 1
5 5 5 5 5 5 5 5 5 5 5 5 5 4 4 4 4 4 4 4 4 4 3 3 3 3 3 3 3 3 3 3 3 3 3 3 3 3 3 3 3 2 2 2 2 2 2 2 2 1 1 1 1 1 1 1 1 1 1 1 1 0 0 0 0 0 1 1 1
5 5 5 5 5 5 5 5 5 5 4 4 4 4 4 4 4 3 3 3 3 3 3 3 3 3 3 3 3 3 3 3 3 3 3 3 3 3 2 2 2 2 2 2 2 2 2 1 1 1 1 1 1 0 0 0 0 0 0 0 0 0 0 0 0 0 0 0 -0
5 5 5 5 5 4 4 4 4 4 4 4 4 3 3 3 3 3 3 3 3 3 3 3 3 3 3 3 3 3 3 3 3 3 2 2 2 2 2 2 2 2 2 2 1 1 1 1 1 1 0 0 -0 -0 -0 -0 -0 -0 -0 -0 -0 -0 -0 -0 -0 -0 -1 -1 -1
4 4 4 4 4 4 4 4 3 3 3 3 3 3 3 3 3 3 3 3 3 3 3 3 3 3 3 3 3 2 2 2 2 2 2 2 2 2 2 1 1 1 1 1 1 1 1 0 0 0 -0 -0 -1 -1 -1 -1 -1 -1 -1 -1 -1 -1 -1 -1 -1 -1 -1 -2 -2
4 4 4 3 3 3 3 3 3 3 3 3 3 3 3 3 3 3 3 3 3 3 3 2 2 2 2 2 2 2 2 2 1 1 1 1 1 1 1 1 1 1 0 0 0 0 0 0 -0 -0 -1 -1 -1 -1 -1 -1 -1 -1 -1 -1 -1 -1 -1 -2 -2 -2 -2 -2 -3
3 3 3 3 3 3 3 3 3 3 3 3 3 3 3 3 3 3 2 2 2 2 2 2 2 2 1 1 1 1 1 1 1 1 1 1 1 1 1 1 0 0 0 -0 -0 -0 -0 -0 -1 -1 -1 -1 -1 -1 -1 -1 -1 -1 -1 -1 -1 -2 -2 -2 -2 -3 -3 -3 -3
3 3 3 3 3 3 3 3 3 3 3 3 2 2 2 2 2 2 2 2 2 1 1 1 1 1 1 1 1 1 1 1 1 1 0 0 0 0 0 0 0 0 -0 -0 -0 -0 -0 -1 -1 -1 -1 -1 -1 -2 -2 -2 -2 -2 -2 -2 -2 -3 -3 -3 -3 -3 -3 -3 -4
2 2 3 3 3 3 3 2 2 2 2 2 2 2 2 1 1 1 1 1 1 1 1 1 1 1 1 1 1 1 0 0 0 0 0 0 -0 -0 -0 0 0 -0 -0 -1 -1 -1 -1 -1 -1 -1 -1 -2 -2 -2 -2 -2 -3 -3 -3 -3 -3 -4 -4 -4 -3 -3 -4 -4 -4
2 2 2 2 2 2 2 2 2 2 2 1 1 1 1 1 1 1 1 1 1 1 1 1 1 0 0 0 0 0 0 0 -0 -0 -0 -0 -0 -0 -0 -0 -0 -0 -1 -1 -1 -1 -1 -1 -1 -1 -2 -2 -2 -3 -3 -4 -4 -4 -4 -5 -5 -5 -5 -5 -4 -4 -4 -4 -4
2 2 2 2 2 2 2 2 1 1 1 1 1 1 1 1 1 1 1 0 0 0 0 0 0 0 0 0 0 0 0 -0 -0 -0 -1 -1 -1 -1 -1 -1 -1 -1 -1 -1 -1 -1 -1 -1 -1 -2 -2 -2 -3 -4 -4 -5 -5 -6 -6 -6 -6 -6 -6 -6 -5 -5 -5 -5 -5
2 2 2 2 2 1 1 1 1 1 1 1 1 1 1 1 0 0 0 0 0 0 0 0 0 0 -0 -0 -0 -0 -0 -0 -0 -1 -1 -1 -1 -1 -1 -1 -1 -1 -1 -1 -1 -1 -1 -1 -2 -2 -2 -3 -4 -5 -6 -6 -6 -7 -7 -7 -7 -7 -6 -7 -6 -6 -6 -6 -6
Height
1451 1452 1453 1454 1454 1455 1456 1456 1457 1457 1458 1458 1459 1459 1459 1459 1459 1460 1460 1460 1460 1459 1459 1460 1461 1462 1463 1464 1465 1466 1467 1467 1468 1468 1469 1470 1471 1472 1474 1475 1477 1478 1479 1480 1481 1482 1482 1483 1483 1483 1483 1484 1485 1486 1486 1487 1487 1487 1487 1487 1488 1488 1488 1488 1488 1488 1489 1489 1490
1450 1451 1452 1452 1453 1453 1454 1455 1455 1456 1456 1457 1457 1457 1457 1458 1458 1458 1458 1458 1458 1458 1458 1459 1460 1461 1462 1464 1465 1465 1466 1467 1467 1468 1469 1469 1470 1472 1473 1475 1476 1477 1478 1479 1480 1480 1481 1481 1481 1482 1482 1483 1484 1484 1485 1485 1485 1486 1486 1486 1486 1487 1487 1487 1487 1487 1488 1488 1489
1449 1450 1451 1451 1451 1452 1452 1453 1454 1454 1455 1455 1456 1456 1456 1456 1456 1457 1457 1457 1457 1457 1457 1457 1459 1460 1462 1463 1464 1465 1466 1466 1467 1468 1469 1469 1470 1472 1473 1474 1475 1476 1477 1477 1477 1478 1479 1479 1480 1480 1481 1482 1482 1482 1483 1483 1484 1484 1484 1485 1485 1485 1486 1486 1486 1487 1487 1487 1487
1448 1448 1449 1449 1450 1450 1451 1452 1452 1452 1453 1454 1454 1455 1455 1455 1455 1455 1456 1456 1457 1457 1457 1457 1458 1459 1461 1462 1463 1465 1466 1467 1468 1469 1469 1470 1470 1471 1472 1473 1473 1474 1474 1475 1476 1477 1477 1478 1478 1479 1480 1480 1481 1481 1482 1482 1482 1482 1483 1483 1484 1484 1485 1485 1485 1486 1486 1486 1486
1447 1447 1447 1447 1448 1449 1449 1450 1451 1451 1452 1452 1453 1453 1454 1454 1454 1455 1455 1456 1457 1458 1458 1458 1459 1460 1461 1462 1463 1464 1466 1467 1468 1468 1469 1469 1469 1469 1469 1470 1471 1472 1473 1474 1475 1476 1477 1477 1478 1479 1479 1480 1480 1480 1480 1481 1481 1482 1482 1483 1483 1483 1484 1484 1484 1484 1484 1484 1484
1446 1446 1446 1447 1447 1447 1448 1449 1449 1450 1451 1451 1452 1452 1453 1453 1454 1455 1455 1456 1457 1457 1457 1458 1458 1459 1461 1462 1462 1463 1464 1465 1465 1465 1466 1466 1467 1467 1468 1469 1470 1471 1472 1474 1475 1476 1477 1477 1478 1479 1479 1479 1479 1479 1480 1480 1481 1481 1482 1482 1482 1482 1483 1483 1483 1483 1483 1483 1482
1444 1445 1445 1446 1446 1447 1447 1448 1448 1449 1450 1451 1451 1452 1452 1453 1453 1454 1455 1455 1456 1457 1457 1458 1458 1459 1460 1461 1462 1462 1462 1462 1463 1463 1464 1465 1466 1467 1468 1470 1471 1472 1473 1475 1476 1477 1477 1477 1478 1478 1478 1478 1478 1479 1479 1480 1480 1481 1481 1481 1481 1481 1482 1482 1481 1481 1481 1481 1481
1444 1444 1445 1445 1446 1447 1447 1448 1448 1449 1449 1450 1450 1451 1452 1452 1452 1454 1455 1456 1456 1457 1457 1458 1459 1459 1460 1461 1461 1462 1462 1462 1463 1463 1464 1466 1467 1469 1470 1471 1472 1473 1474 1475 1476 1476 1477 1477 1477 1477 1477 1477 1477 1478 1478 1479 1479 1479 1480 1480 1480 1480 1480 1480 1480 1479 1479 1479 1479
1444 1445 1446 1446 1447 1447 1447 1447 1448 1448 1448 1449 1450 1451 1451 1452 1453 1454 1455 1456 1456 1457 1457 1458 1459 1460 1460 1461 1462 1462 1462 1463 1463 1464 1466 1467 1469 1470 1471 1472 1472 1473 1474 1475 1475 1475 1476 1476 1476 1476 1476 1476 1477 1477 1477 1477 1477 1478 1478 1478 1478 1478 1478 1478 1477 1477 1477 1477 1477
1445 1445 1446 1446 1446 1446 1447 1447 1448 1448 1449 1450 1450 1451 1452 1453 1454 1454 1455 1455 1456 1457 1457 1458 1459 1460 1461 1461 1462 1462 1463 1464 1465 1466 1467 1468 1470 1470 1471 1472 1472 1473 1474 1474 1475 1475 1475 1475 1475 1475 1475 1475 1475 1476 1476 1476 1476 1476 1477 1477 1477 1476 1476 1476 1476 1475 1475 1475 1475
1444 1445 1445 1445 1446 1447 1447 1448 1449 1449 1450 1451 1451 1452 1453 1453 1454 1455 1455 1456 1457 1457 1458 1459 1460 1461 1462 1462 1463 1463 1464 1465 1466 1467 1468 1469 1470 1470 1471 1472 1472 1473 1473 1474 1474 1474 1474 1474 1474 1474 1474 1474 1474 1474 1475 1475 1475 1475 1475 1475 1475 1475 1474 1474 1474 1473 1473 1473 1472
1444 1445 1445 1446 1447 1448 1449 1449 1450 1450 1451 1451 1452 1452 1453 1454 1455 1456 1456 1457 1457 1458 1460 1461 1462 1462 1463 1464 1464 1465 1466 1467 1467 1468 1469 1469 1470 1471 1471 1472 1472 1473 1473 1473 1473 1473 1473 1473 1473 1473 1473 1473 1473 1473 1473 1473 1473 1473 1473 1473 1473 1473 1473 1472 1472 1472 1471 1471 1470
1445 1446 1446 1447 1448 1449 1449 1450 1451 1451 1452 1452 1452 1453 1454 1455 1456 1456 1457 1457 1459 1460 1461 1462 1463 1464 1465 1465 1466 1467 1467 1468 1469 1469 1469 1470 1470 1471 1471 1472 1472 1472 1472 1472 1473 1473 1473 1473 1473 1472 1472 1472 1472 1472 1472 1472 1472 1472 1472 1472 1472 1471 1471 1470 1470 1469 1469 1468 1468
1446 1447 1447 1448 1449 1450 1450 1451 1451 1452 1452 1453 1453 1454 1454 1455 1456 1457 1458 1459 1460 1461 1462 1463 1464 1465 1466 1467 1467 1468 1468 1469 1469 1469 1469 1470 1470 1471 1471 1471 1472 1472 1472 1472 1472 1472 1472 1472 1472 1472 1472 1471 1471 1471 1471 1471 1471 1470 1470 1470 1469 1469 1469 1468 1468 1467 1467 1466 1466
1447 1448 1448 1449 1450 1450 1451 1451 1452 1452 1453 1453 1454 1455 1456 1457 1458 1459 1460 1461 1462 1463 1464 1465 1466 1467 1467 1468 1468 1468 1468 1469 1469 1469 1469 1470 1470 1470 1471 1471 1471 1471 1471 1471 1471 1471 1471 1471 1471 1470 1470 1470 1470 1470 1469 1469 1469 1468 1468 1468 1467 1467 1467 1466 1465 1465 1464 1464 1463
1448 1448 1449 1450 1450 1451 1452 1452 1453 1454 1455 1456 1457 1457 1458 1459 1460 1461 1462 1463 1464 1465 1466 1466 1467 1467 1467 1467 1468 1468 1468 1468 1469 1469 1469 1469 1470 1470 1470 1470 1470 1470 1470 1470 1470 1470 1470 1469 1469 1469 1469 1469 1468 1468 1468 1467 1467 1467 1466 1466 1465 1465 1464 1464 1463 1462 1462 1462 1461
1449 1449 1450 1451 1452 1452 1453 1454 1455 1456 1457 1457 1458 1459 1460 1461 1462 1463 1463 1464 1465 1465 1466 1466 1467 1467 1467 1467 1467 1468 1468 1468 1468 1469 1469 1469 1469 1469 1469 1469 1469 1469 1469 1469 1469 1468 1468 1468 1468 1467 1467 1467 1467 1466 1466 1466 1465 1465 1464 1464 1463 1462 1462 1462 1461 1460 1460 1459 1459
1450 1451 1452 1452 1453 1454 1455 1456 1457 1457 1458 1459 1460 1461 1461 1462 1463 1463 1464 1464 1465 1466 1466 1466 1467 1467 1467 1467 1467 1468 1468 1468 1468 1468 1468 1468 1468 1468 1468 1468 1468 1468 1468 1467 1467 1467 1467 1467 1466 1466 1465 1465 1465 1464 1464 1463 1463 1462 1462 1462 1461 1460 1460 1459 1459 1458 1457 1457 1457
1452 1453 1453 1454 1454 1455 1456 1457 1457 1458 1459 1460 1461 1461 1462 1462 1463 1464 1464 1465 1465 1466 1466 1467 1467 1467 1467 1467 1467 1467 1467 1467 1467 1467 1467 1467 1467 1467 1467 1467 1467 1467 1466 1466 1466 1465 1465 1465 1464 1464 1463 1463 1462 1462 1462 1461 1461 1460 1460 1459 1459 1458 1457 1457 1457 1456 1455 1455 1454
1453 1453 1454 1455 1456 1456 1457 1458 1458 1459 1460 1461 1461 1462 1462 1463 1464 1464 1465 1465 1466 1466 1466 1467 1467 1467 1467 1467 1467 1467 1467 1467 1467 1467 1467 1466 1466 1466 1466 1466 1465 1465 1465 1464 1464 1464 1463 1463 1462 1462 1462 1461 1461 1460 1460 1459 1459 1458 1457 1457 1457 1456 1455 1455 1454 1453 1453 1452 1452
1454 1454 1455 1456 1457 1457 1458 1459 1460 1460 1461 1462 1462 1463 1463 1464 1464 1465 1465 1465 1466 1466 1466 1466 1466 1466 1466 1466 1466 1466 1466 1466 1466 1466 1466 1465 1465 1465 1465 1464 1464 1464 1463 1463 1462 1462 1462 1461 1461 1460 1460 1459 1459 1458 1458 1457 1457 1456 1456 1455 1454 1454 1453 1452 1452 1452 1451 1451 1450
1455 1456 1457 1457 1458 1459 1459 1460 1461 1462 1462 1462 1463 1463 1464 1464 1465 1465 1465 1465 1465 1466 1466 1466 1466 1466 1466 1466 1466 1465 1465 1465 1465 1465 1465 1465 1464 1464 1464 1463 1463 1462 1462 1462 1461 1460 1460 1459 1459 1458 1458 1457 1457 1456 1456 1455 1455 1454 1454 1453 1452 1452 1452 1451 1450 1450 1449 1449 1448
1456 1457 1458 1458 1459 1460 1461 1461 1462 1462 1463 1463 1463 1464 1464 1464 1465 1465 1465 1465 1465 1465 1465 1465 1465 1465 1465 1465 1465 1465 1465 1465 1464 1464 1464 1463 1463 1463 1462 1462 1462 1461 1460 1460 1459 1459 1458 1458 1457 1457 1456 1456 1455 1455 1454 1453 1453 1452 1452 1452 1451 1450 1450 1449 1449 1448 1448 1447 1447
1457 1458 1459 1460 1460 1461 1461 1462 1462 1463 1463 1463 1464 1464 1464 1464 1464 1465 1465 1465 1465 1465 1465 1465 1465 1465 1465 1465 1464 1464 1464 1464 1463 1463 1462 1462 1462 1461 1461 1460 1460 1459 1459 1458 1458 1457 1457 1456 1456 1455 1454 1454 1453 1453 1452 1452 1451 1451 1450 1449 1449 1448 1448 1448 1447 1447 1446 1446 1445
1459 1459 1460 1461 1461 1462 1462 1462 1463 1463 1463 1464 1464 1464 1464 1464 1464 1464 1464 1464 1464 1464 1464 1464 1464 1464 1464 1464 1463 1463 1463 1462 1462 1462 1461 1461 1461 1460 1460 1459 1459 1458 1458 1457 1457 1456 1455 1455 1454 1453 1452 1452 1451 1451 1450 1449 1449 1448 1447 1447 1447 1446 1446 1445 1445 1444 1444 1443 1443
1460 1460 1461 1461 1462 1462 1463 1463 1463 1464 1464 1464 1464 1464 1464 1464 1464 1464 1464 1464 1464 1464 1464 1464 1463 1463 1463 1463 1462 1462 1462 1462 1461 1461 1461 1460 1460 1459 1458 1458 1457 1457 1457 1456 1455 1454 1454 1453 1452 1451 1450 1449 1448 1448 1447 1447 1446 1445 1445 1444 1443 1443 1442 1442 1442 1442 1441 1441 1440
1461 1462 1462 1462 1463 1463 1463 1464 1464 1464 1464 1464 1464 1464 1464 1464 1464 1464 1464 1463 1463 1463 1463 1463 1462 1462 1462 1462 1462 1461 1461 1461 1460 1460 1459 1459 1458 1458 1457 1457 1456 1455 1455 1454 1453 1452 1452 1451 1450 1448 1447 1446 1446 1445 1444 1444 1443 1442 1442 1441 1441 1440 1440 1439 1439 1439 1438 1438 1437
1462 1462 1463 1463 1463 1464 1464 1464 1464 1464 1464 1464 1464 1464 1464 1464 1463 1463 1463 1463 1463 1462 1462 1462 1462 1462 1461 1461 1460 1460 1460 1459 1459 1458 1458 1457 1457 1456 1455 1455 1454 1453 1452 1452 1451 1450 1449 1448 1447 1446 1445 1444 1443 1442 1442 1442 1441 1440 1440 1439 1439 1438 1438 1437 1437 1437 1437 1436 1436
1462 1463 1463 1464 1464 1464 1464 1464 1464 1464 1464 1464 1464 1463 1463 1463 1463 1463 1462 1462 1462 1462 1462 1461 1461 1461 1460 1460 1459 1459 1458 1458 1457 1457 1456 1455 1455 1454 1453 1452 1452 1451 1450 1450 1449 1448 1447 1446 1445 1444 1443 1442 1441 1441 1440 1440 1439 1439 1438 1438 1437 1437 1437 1436 1435 1435 1434 1434 1433
1463 1463 1463 1464 1464 1464 1464 1464 1464 1464 1464 1463 1463 1463 1463 1463 1463 1462 1462 1462 1462 1461 1461 1460 1460 1459 1459 1458 1458 1457 1457 1456 1455 1455 1454 1453 1453 1452 1451 1451 1450 1449 1448 1448 1447 1446 1445 1445 1444 1443 1442 1441 1440 1439 1438 1438 1438 1437 1437 1437 1436 1436 1435 1434 1433 1433 1432 1431 1431
1463 1463 1464 1464 1464 1464 1464 1464 1464 1464 1463 1463 1463 1463 1463 1462 1462 1462 1461 1461 1460 1460 1459 1459 1458 1458 1457 1457 1456 1456 1455 1454 1454 1453 1452 1452 1451 1451 1450 1449 1448 1448 1447 1447 1446 1445 1444 1443 1442 1442 1441 1440 1439 1438 1437 1437 1436 1436 1435 1435 1434 1433 1433 1432 1431 1430 1429 1428 1427
1464 1464 1464 1464 1464 1464 1464 1464 1464 1464 1463 1463 1463 1462 1462 1462 1461 1461 1460 1459 1459 1458 1458 1457 1457 1456 1456 1455 1455 1454 1453 1453 1452 1452 1451 1451 1450 1449 1449 1448 1447 1447 1446 1445 1445 1444 1443 1442 1441 1440 1439 1438 1437 1436 1435 1434 1434 1433 1433 1432 1432 1431 1430 1429 1428 1427 1426 1425 1424
1464 1464 1464 1464 1464 1464 1464 1463 1463 1463 1462 1462 1462 1461 1460 1460 1459 1459 1458 1458 1457 1457 1456 1456 1455 1455 1454 1454 1453 1453 1452 1452 1451 1451 1450 1449 1449 1448 1447 1447 1446 1445 1445 1444 1443 1442 1442 1441 1440 1439 1437 1437 1435 1434 1433 1432 1431 1431 1430 1429 1428 1427 1427 1426 1424 1423 1422 1422 1421
1464 1464 1464 1464 1463 1463 1463 1462 1462 1462 1461 1460 1460 1459 1459 1458 1458 1458 1457 1457 1456 1456 1455 1455 1454 1454 1453 1453 1452 1452 1451 1451 1450 1450 1449 1448 1448 1447 1447 1446 1445 1444 1443 1442 1442 1441 1440 1439 1438 1437 1436 1434 1433 1432 1431 1430 1429 1428 1427 1426 1425 1424 1423 1422 1421 1420 1419 1418 1417
1464 1463 1463 1463 1462 1462 1461 1461 1460 1460 1459 1459 1459 1458 1458 1457 1457 1457 1457 1456 1456 1455 1455 1454 1454 1453 1452 1452 1452 1451 1450 1450 1449 1448 1448 1447 1447 1446 1445 1444 1443 1442 1441 1441 1440 1439 1438 1437 1436 1434 1433 1432 1431 1429 1428 1427 1426 1425 1424 1423 1422 1421 1420 1419 1418 1417 1417 1416 1415
1463 1462 1462 1462 1461 1461 1460 1460 1459 1459 1459 1458 1458 1458 1458 1457 1457 1457 1456 1456 1455 1455 1454 1454 1453 1452 1452 1452 1451 1450 1449 1449 1448 1447 1447 1446 1445 1444 1443 1443 1442 1441 1440 1438 1437 1437 1436 1434 1433 1432 1431 1429 1428 1427 1426 1424 1423 1422 1421 1420 1419 1418 1417 1417 1416 1415 1414 1413 1412
1462 1461 1461 1460 1460 1460 1459 1459 1459 1459 1459 1458 1458 1458 1457 1457 1457 1456 1456 1455 1455 1454 1454 1453 1452 1452 1451 1451 1450 1449 1448 1447 1447 1446 1445 1444 1443 1442 1441 1441 1440 1439 1438 1437 1435 1434 1433 1432 1431 1430 1428 1427 1425 1424 1423 1422 1421 1419 1418 1417 1417 1416 1415 1414 1413 1412 1412 1411 1410
1461 1461 1460 1460 1460 1460 1459 1459 1459 1459 1459 1458 1458 1458 1457 1457 1457 1456 1455 1455 1454 1453 1453 1452 1452 1451 1450 1449 1448 1447 1447 1446 1445 1444 1443 1442 1441 1440 1439 1438 1437 1437 1436 1434 1433 1432 1431 1430 1429 1427 1426 1425 1423 1422 1421 1419 1418 1417 1416 1415 1414 1413 1412 1412 1411 1410 1409 1408 1407
1460 1460 1460 1460 1460 1460 1460 1459 1459 1459 1459 1458 1458 1457 1457 1457 1456 1455 1454 1453 1453 1452 1451 1451 1450 1449 1448 1447 1447 1446 1445 1444 1443 1442 1441 1440 1439 1437 1437 1436 1435 1434 1433 1432 1431 1430 1429 1427 1427 1425 1424 1422 1421 1419 1418 1417 1416 1415 1414 1413 1412 1411 1410 1409 1408 1407 1407 1406 1405
1461 1460 1460 1460 1460 1460 1460 1460 1459 1459 1458 1458 1457 1457 1456 1455 1454 1454 1453 1452 1451 1450 1449 1449 1448 1447 1446 1445 1444 1443 1443 1442 1441 1440 1439 1437 1437 1435 1434 1433 1432 1432 1431 1430 1429 1427 1426 1425 1424 1423 1422 1420 1418 1417 1416 1415 1414 1413 1412 1411 1410 1409 1407 1407 1406 1405 1404 1403 1402
1461 1461 1460 1460 1460 1460 1460 1459 1459 1458 1457 1457 1456 1455 1454 1453 1453 1452 1451 1450 1449 1448 1447 1447 1446 1445 1444 1443 1442 1441 1441 1440 1439 1438 1437 1436 1434 1433 1432 1431 1430 1429 1428 1427 1426 1425 1424 1423 1422 1420 1419 1418 1417 1415 1414 1413 1412 1411 1410 1409 1408 1407 1406 1404 1403 1403 1402 1401 1400
Wind_Speed
13 12 12 14 16 17 19 20 20 20 20 20 22 24 24 24 24 24 24 24 24 25 25 25 24 22 22 22 22 22 21 21 21 21 22 23 23 23 22 21 21 20 18 16 15 14 13 12 11 11 12 13 14 15 16 16 16 15 15 16 16 17 17 18 19 20 20 21 22
13 13 15 16 18 19 20 21 21 21 21 22 24 25 26 25 24 25 25 25 25 25 25 26 25 24 23 23 22 21 20 20 20 21 21 22 22 22 21 20 18 16 14 12 11 12 12 12 12 12 13 14 14 14 14 14 14 15 15 16 16 17 18 19 20 21 21 21 21
14 16 17 19 20 20 21 21 22 22 23 23 25 25 25 24 23 24 24 24 23 22 23 25 26 25 24 23 22 20 19 19 19 20 20 20 20 19 19 18 16 13 11 10 10 11 11 12 12 12 12 12 11 11 12 13 14 14 15 16 17 18 19 19 20 20 21 21 21
16 18 19 20 20 21 21 22 22 23 23 23 23 23 22 22 21 20 20 20 18 17 18 20 22 22 22 22 20 19 19 18 18 18 17 16 14 13 12 10 9 8 8 8 9 9 10 10 11 10 10 10 11 11 13 14 14 14 15 16 16 17 18 19 19 20 20 21 21
18 19 19 20 20 21 21 22 22 22 22 21 19 17 16 15 14 14 14 14 14 14 15 16 17 18 19 19 19 19 19 18 17 15 13 11 8 5 4 3 4 4 5 6 7 7 8 8 9 9 9 10 11 12 13 13 14 14 15 15 16 17 17 18 19 20 20 21 21
19 19 19 19 20 20 21 22 21 20 18 16 14 12 12 13 15 16 17 18 18 18 18 18 18 18 17 17 17 17 16 15 13 11 8 6 4 3 3 3 3 4 4 4 5 6 6 7 8 9 10 11 11 12 13 13 14 14 15 15 16 16 17 18 18 19 20 20 21
17 17 18 18 19 19 19 19 18 16 14 13 14 17 19 21 21 20 19 18 17 17 16 16 16 16 15 14 14 13 12 11 10 8 6 5 3 2 1 0 1 2 3 4 5 6 7 8 9 10 10 11 11 12 13 14 14 15 15 16 17 17 18 18 19 20 20 21 21
15 15 16 16 16 16 16 15 15 16 18 21 23 24 24 23 22 19 17 14 13 12 12 12 12 12 12 11 11 10 9 8 8 6 6 6 5 3 2 1 2 3 5 6 7 7 8 9 9 10 11 12 12 13 14 15 15 16 17 18 18 19 20 20 20 21 21 22 22
15 16 18 19 20 21 22 22 23 24 25 25 25 24 23 22 19 16 13 10 8 7 6 6 7 8 8 8 7 7 6 6 7 7 6 5 2 0 1 3 4 6 7 8 8 9 10 10 11 12 13 13 14 15 16 16 17 18 19 19 20 21 21 22 22 22 23 23 23
23 25 26 27 27 26 26 25 25 25 25 24 23 22 21 19 17 15 12 10 8 6 4 3 5 6 6 6 6 6 6 6 6 5 3 1 1 3 4 5 7 8 9 10 11 12 12 13 13 14 15 15 16 17 18 18 19 19 20 21 21 22 22 23 23 23 24 24 24
27 27 26 26 25 24 23 22 22 22 21 21 20 19 18 17 15 13 12 10 8 7 5 3 4 6 7 8 8 8 7 6 5 3 1 2 3 5 6 8 9 11 12 12 13 13 14 15 15 16 17 17 18 19 19 20 20 21 21 22 22 22 22 23 23 24 24 24 24
25 23 22 22 21 20 19 18 18 18 17 17 16 16 15 14 13 12 11 9 8 7 6 6 6 7 7 8 7 6 5 3 2 2 4 5 6 8 9 11 12 13 13 14 14 15 15 16 17 17 18 19 19 19 20 20 20 20 21 21 21 21 22 22 23 23 23 23 24
22 21 20 19 18 17 16 16 15 15 15 15 14 14 13 13 12 12 11 10 10 9 9 8 7 7 6 4 3 1 1 3 4 6 7 8 9 10 11 12 13 14 14 15 15 16 16 16 17 17 18 18 18 18 19 19 19 19 19 20 20 20 20 21 21 22 22 22 23
22 21 20 19 18 17 16 15 15 15 14 14 14 14 14 13 13 12 11 11 10 9 8 6 4 3 1 2 3 5 6 7 8 8 9 10 11 11 12 13 13 14 14 14 15 15 15 15 15 16 16 16 16 16 17 17 17 17 18 18 18 19 19 20 20 21 21 22 22
22 22 21 19 18 17 16 16 15 15 14 14 14 13 13 12 11 10 9 7 6 5 3 3 3 4 5 6 6 7 7 8 8 9 9 10 11 11 11 12 12 12 12 12 12 12 12 13 13 13 13 14 14 15 15 15 16 16 17 17 18 19 19 20 20 21 21 22 22
22 21 20 19 18 17 16 16 15 14 13 13 12 10 9 8 8 7 6 5 5 5 5 6 6 6 6 6 6 6 7 7 8 8 8 9 9 9 9 9 9 9 9 9 10 10 10 11 11 12 12 13 14 14 15 16 16 17 18 18 19 20 20 21 21 22 22 23 23
21 20 19 18 17 16 15 15 14 13 12 12 11 10 9 9 8 8 7 7 6 6 5 5 5 4 4 4 4 5 5 5 5 6 6 6 6 6 6 7 7 7 8 9 9 10 11 11 12 13 14 14 15 16 17 17 18 19 19 20 21 21 22 22 23 23 24 24 24
19 18 17 17 16 15 15 14 14 13 13 12 11 11 10 9 8 8 7 6 5 4 4 3 3 3 2 2 2 2 2 2 3 3 3 4 4 5 6 7 7 8 9 10 11 12 13 14 15 15 16 17 18 18 19 20 20 21 21 22 22 23 23 23 24 24 24 24 25
19 18 17 16 16 15 15 14 13 13 12 11 11 10 10 9 8 7 7 6 6 5 4 4 3 3 2 2 1 0 0 1 2 3 4 5 6 7 8 9 10 11 12 13 14 15 15 16 17 18 18 19 20 20 21 21 22 22 23 23 23 23 23 23 24 24 24 24 25
18 18 17 16 16 15 15 14 14 13 13 12 12 11 11 10 9 8 8 7 6 6 5 4 4 3 2 1 1 2 3 4 5 6 7 8 9 10 11 11 12 13 14 15 16 17 17 18 19 19 20 20 21 21 22 22 22 23 23 23 23 23 23 23 23 23 24 24 24
19 19 18 18 17 17 16 16 15 15 14 14 13 12 11 10 9 8 8 7 6 5 4 4 3 3 3 3 4 5 5 6 7 8 9 10 11 11 12 13 14 15 16 16 17 18 18 19 19 20 20 21 21 21 22 22 22 22 22 22 22 22 22 22 23 23 23 23 23
21 20 20 19 18 18 17 16 16 15 14 13 12 11 10 9 8 7 6 6 5 5 4 4 4 4 4 5 6 6 7 8 9 9 10 11 12 12 13 14 15 15 16 17 17 18 18 19 19 19 20 20 20 20 21 21 21 21 21 21 21 21 21 21 22 22 22 22 23
21 20 19 19 18 17 16 15 14 13 12 11 10 9 9 8 7 6 6 5 5 4 4 4 4 5 5 6 7 7 8 9 10 10 11 11 12 13 13 14 14 15 15 16 16 17 17 18 18 19 19 19 19 19 20 20 20 20 20 20 20 20 20 20 21 21 21 21 22
20 19 18 17 16 15 14 13 12 11 10 10 9 8 7 7 6 5 5 5 4 4 4 4 5 5 6 6 7 8 8 9 10 10 11 12 12 12 13 13 14 14 14 15 15 16 16 17 17 18 18 18 19 19 19 19 19 20 20 20 20 20 20 20 20 21 21 21 21
19 18 17 16 15 14 13 12 11 10 9 8 8 7 6 6 5 5 4 4 4 4 5 5 6 6 7 7 8 8 9 9 10 10 11 11 12 12 12 13 13 13 14 14 15 15 16 17 17 18 18 19 19 19 19 20 20 20 21 21 21 21 21 21 21 21 21 22 22
17 16 15 14 13 12 11 10 9 8 8 7 6 6 5 5 5 5 4 5 5 5 6 6 7 7 8 8 9 9 9 9 10 10 10 11 11 12 12 12 13 13 14 14 15 15 16 17 18 19 19 20 20 21 21 21 22 22 22 22 23 23 23 23 23 23 23 23 23
15 14 13 12 11 10 9 8 8 7 6 6 5 5 5 5 5 5 5 6 6 7 7 7 8 8 9 9 9 9 10 10 10 11 11 11 12 12 12 13 13 14 15 15 16 17 17 18 19 20 21 22 22 23 23 23 24 24 24 24 24 24 24 25 25 25 25 24 25
13 12 11 10 9 8 8 7 6 6 5 5 5 5 5 6 6 6 6 7 7 8 8 8 9 9 9 10 10 10 10 11 11 11 12 12 13 13 14 15 15 16 16 17 18 19 19 20 21 22 23 23 24 24 25 25 25 25 25 25 25 25 25 25 25 25 25 25 25
11 10 9 8 8 7 7 6 6 5 5 6 6 6 6 6 7 7 7 8 8 8 8 9 9 10 10 10 10 11 11 12 12 13 13 14 15 15 16 17 17 18 19 19 20 20 21 22 22 23 23 24 25 25 25 25 25 25 25 25 25 25 25 25 25 25 25 25 25
10 9 8 7 7 6 6 6 6 6 6 6 6 7 7 7 7 7 8 8 8 9 9 9 10 10 10 11 12 12 13 14 14 15 15 16 16 17 18 19 19 20 20 21 21 21 22 22 23 23 24 24 25 25 26 26 25 25 25 25 25 25 25 25 26 26 26 26 26
8 8 7 6 6 6 6 6 6 6 6 6 6 7 7 7 8 8 8 9 9 10 10 11 11 11 12 13 13 14 15 15 16 17 17 17 18 18 19 20 20 21 21 21 22 22 22 23 23 23 24 24 25 26 26 26 26 26 26 25 25 25 26 26 26 26 26 26 26
7 6 6 6 5 5 6 6 6 6 7 7 7 8 8 9 9 10 10 11 11 12 12 13 13 13 14 15 15 16 16 17 17 18 18 18 19 19 20 20 21 21 21 22 22 22 23 23 23 24 24 25 25 26 26 26 27 26 26 26 26 26 26 27 27 27 27 27 27
6 6 5 5 6 6 6 7 7 8 8 9 9 10 10 11 12 12 12 13 13 14 14 15 15 15 16 16 16 17 17 17 18 18 19 19 19 20 20 20 21 21 22 22 22 22 23 23 24 24 24 25 25 26 27 27 27 27 27 27 27 27 27 27 27 27 27 27 27
6 6 6 6 7 7 8 9 10 10 11 11 12 13 13 13 14 14 14 14 15 15 15 16 16 16 16 17 17 17 18 18 18 19 19 19 20 20 20 21 21 22 22 22 23 23 23 24 24 24 25 25 26 27 27 27 28 28 28 28 28 28 28 27 27 27 27 26 26
7 7 8 9 9 10 11 12 13 13 14 14 14 14 15 15 15 15 15 15 15 15 15 16 16 16 17 17 17 18 18 18 19 19 20 20 20 20 21 21 21 22 23 23 23 24 24 24 25 25 26 26 27 27 28 28 28 28 28 28 28 28 28 27 27 26 26 26 26
9 10 11 11 12 13 14 14 15 15 15 15 15 15 15 15 15 15 15 15 15 15 15 15 16 16 17 17 17 18 18 19 19 20 20 21 21 21 22 22 22 22 23 24 24 24 25 25 25 26 26 27 27 28 28 28 28 28 28 28 28 28 27 27 26 26 26 26 25
12 12 13 14 14 15 15 15 15 15 15 15 15 15 15 15 15 15 15 15 15 15 15 16 16 17 17 18 18 19 19 20 20 21 21 22 22 23 23 23 23 23 24 24 25 25 25 26 26 26 27 28 28 28 28 28 28 28 27 27 27 27 27 26 26 26 26 26 25
14 15 15 15 15 15 15 15 15 15 15 15 15 14 14 14 15 15 15 15 16 16 16 17 17 18 18 19 19 20 20 21 22 22 23 23 23 24 24 24 24 24 24 25 26 26 26 27 27 27 27 27 28 27 27 26 26 26 26 26 26 26 26 26 26 26 26 26 26
15 15 15 15 15 15 15 15 15 15 14 14 15 15 15 15 15 16 16 16 17 18 18 18 19 19 20 20 21 21 21 22 22 23 24 24 25 25 25 26 26 25 25 26 26 27 27 27 27 27 27 27 26 25 25 24 24 24 24 25 25 25 25 25 25 26 26 26 26
16 15 15 15 15 15 15 15 15 15 15 15 15 15 16 16 16 17 17 18 18 19 20 20 21 21 22 22 22 23 23 23 23 24 25 25 26 26 26 27 27 27 26 27 27 27 27 27 27 27 26 25 24 22 21 21 22 22 23 24 24 25 25 25 25 25 26 26 26
15 15 15 15 15 15 15 15 15 15 15 16 16 17 17 17 18 18 19 19 20 20 21 22 22 22 23 23 24 24 24 24 24 25 25 26 26 27 27 27 28 27 27 27 27 27 27 27 27 26 24 22 21 19 18 18 20 21 22 23 23 24 24 24 24 24 25 25 26
Wind_Direction
244 245 244 243 243 244 246 249 252 254 255 256 256 255 251 246 242 238 234 229 227 224 221 217 216 215 214 214 212 210 209 206 202 195 188 183 182 185 187 187 186 186 187 192 201 214 228 243 256 261 259 255 253 253 254 257 261 264 268 270 273 275 277 277 278 278 277 277 277
238 239 239 239 241 244 246 249 251 253 254 255 253 251 247 242 238 234 231 228 227 224 217 210 208 208 208 207 206 204 201 198 193 186 179 175 176 179 182 183 186 191 201 213 228 241 251 259 262 259 253 249 248 251 256 261 265 269 272 275 277 279 279 279 279 279 278 278 277
231 234 237 239 241 243 245 247 249 251 252 251 249 246 243 240 238 234 231 228 220 212 206 202 201 201 202 202 201 197 192 187 185 181 177 174 175 178 182 185 188 194 204 219 232 244 251 255 256 253 251 251 253 258 263 266 268 271 274 276 278 279 279 279 278 277 276 275 274
231 234 237 239 241 243 244 244 245 245 245 243 242 241 240 240 238 232 226 220 207 196 190 187 187 188 188 187 183 177 171 168 169 168 166 163 164 167 172 179 188 200 213 224 236 245 251 256 258 260 262 264 265 266 267 268 270 272 273 275 276 277 277 276 275 273 272 271 271
233 236 238 240 242 241 240 238 235 234 233 233 234 234 232 228 219 206 192 179 165 155 150 151 153 155 156 156 154 151 150 150 150 148 145 142 145 155 178 207 227 240 248 252 254 257 259 262 264 264 264 264 263 264 265 267 269 270 270 271 271 272 272 271 271 270 270 271 272
234 236 238 238 238 235 231 227 224 222 222 223 217 204 187 171 161 154 147 139 132 128 125 125 126 126 126 128 130 133 136 138 139 138 138 143 160 190 225 250 268 277 277 271 264 258 255 254 254 254 255 256 258 260 262 264 265 265 265 266 267 267 267 268 269 270 271 272 274
230 230 229 227 224 221 217 214 213 209 199 182 163 149 142 139 139 137 135 131 127 125 123 121 120 118 118 121 125 130 134 138 142 144 144 141 137 134 125 251 273 263 253 246 241 240 240 242 244 247 250 253 255 258 259 260 261 262 263 264 265 266 266 267 268 269 271 272 274
216 210 204 197 191 184 178 173 167 158 147 137 132 130 130 131 131 129 127 125 123 122 120 118 115 114 118 126 134 139 141 139 133 122 103 84 76 74 85 153 231 238 240 241 241 242 243 246 249 251 254 256 258 259 260 261 262 263 264 265 267 268 269 270 270 271 272 273 274
172 162 153 145 139 135 132 130 130 130 129 127 125 124 124 125 125 125 126 125 121 114 107 98 90 92 101 114 124 128 124 114 98 85 74 66 65 92 241 246 249 251 254 255 256 256 257 258 259 261 262 263 264 264 265 265 266 267 268 270 271 272 273 274 275 275 275 276 276
133 128 124 121 120 120 121 123 125 126 127 126 125 123 121 121 123 125 127 125 122 121 111 79 55 53 57 61 65 66 67 68 69 69 68 72 255 258 260 260 259 258 259 260 261 262 264 265 266 267 267 268 269 269 270 271 272 272 273 274 275 276 277 277 278 278 278 278 278
121 118 116 115 116 118 120 123 124 124 124 122 120 117 116 117 119 120 120 120 125 130 128 107 63 43 39 38 38 38 38 40 40 35 344 271 264 261 259 256 256 256 258 260 262 264 267 269 270 271 272 272 273 274 274 275 275 276 276 276 277 277 278 278 278 278 278 278 278
118 116 114 113 114 117 120 121 119 116 112 109 106 105 105 105 104 103 102 103 105 104 98 84 65 50 42 38 34 30 25 15 341 283 263 257 256 255 253 254 255 258 261 264 266 269 271 272 273 274 274 275 275 275 275 276 276 276 276 277 277 277 277 277 278 278 278 278 278
118 116 113 111 110 112 114 112 107 101 96 93 89 87 85 83 80 76 73 71 69 67 63 59 54 50 46 42 34 2 272 250 245 245 246 248 251 253 255 258 261 264 267 269 271 272 273 273 274 274 275 275 275 275 275 275 276 276 276 277 277 277 277 277 278 278 278 279 279
112 110 107 104 103 103 102 99 94 89 84 80 75 70 67 65 63 60 57 56 55 56 57 58 61 69 109 203 219 227 232 237 241 245 249 253 257 260 263 265 267 269 270 271 272 273 273 273 274 274 275 275 275 276 276 276 277 277 278 278 279 279 280 280 280 280 281 282 282
101 99 97 96 94 93 91 88 84 80 76 73 68 65 63 63 63 63 64 66 72 82 105 143 178 197 210 218 225 232 240 246 251 256 260 263 265 266 268 269 270 271 272 273 274 275 275 276 276 277 277 278 278 279 279 280 280 281 282 282 283 283 284 284 284 284 285 285 285
95 93 92 91 89 88 86 85 84 83 82 82 81 82 84 88 94 102 113 127 144 162 177 189 200 209 219 227 236 244 251 256 260 262 264 265 266 267 269 270 272 274 275 277 278 279 280 280 281 281 282 282 282 283 283 283 284 284 285 285 286 286 286 286 287 287 287 287 287
97 97 96 96 96 97 97 99 101 104 106 109 113 117 122 127 134 141 149 156 165 174 185 193 204 214 226 234 242 247 252 255 258 260 262 265 267 271 274 277 279 281 283 284 285 285 285 286 286 286 286 286 286 286 286 286 286 287 287 287 287 287 288 288 288 288 288 288 288
108 109 110 111 112 113 115 116 118 120 122 125 127 129 131 133 136 141 145 148 149 154 162 173 183 190 198 206 218 227 236 246 256 266 273 280 285 288 290 291 292 292 292 292 292 292 291 291 290 290 290 290 289 289 289 289 289 289 288 288 288 288 288 289 289 289 289 289 289
116 117 117 117 117 117 117 117 117 117 118 118 119 119 118 119 120 122 125 127 128 129 131 133 136 139 140 140 141 156 281 300 304 306 305 304 304 303 302 301 300 299 299 298 297 296 295 294 293 293 292 291 291 291 290 290 290 290 289 289 289 290 290 290 290 290 290 291 291
113 112 111 110 110 109 108 108 108 107 107 107 108 108 109 109 110 112 113 115 115 114 113 109 106 99 87 62 20 351 334 326 321 317 313 311 309 307 306 304 303 301 300 299 297 296 295 294 294 293 292 292 291 291 291 291 290 291 291 291 291 292 292 292 293 293 293 293 293
106 105 104 103 103 103 103 102 102 103 103 104 104 104 104 105 105 105 104 101 98 94 87 76 61 40 19 359 345 334 328 322 319 315 312 309 307 305 303 302 300 299 298 297 296 295 294 294 293 293 292 292 292 292 292 292 292 292 293 293 294 294 294 295 295 295 295 295 295
102 101 101 101 100 100 100 100 100 100 101 100 100 99 98 96 95 91 86 80 73 63 50 35 18 3 351 339 331 325 319 315 312 308 306 304 303 301 299 298 298 297 296 296 295 295 295 294 294 294 294 294 294 294 294 294 294 294 294 295 295 296 296 296 296 296 295 295 294
99 99 98 98 97 97 96 96 95 95 94 92 90 88 85 82 77 71 64 57 48 36 22 8 355 343 334 326 320 315 312 309 307 305 303 302 301 300 299 299 298 298 298 298 297 297 297 297 296 296 296 296 296 296 295 295 295 295 295 295 295 295 296 295 295 295 294 293 293
95 95 94 93 92 91 89 88 87 85 83 81 78 74 70 65 59 52 46 38 27 13 359 347 337 328 323 318 315 312 310 309 307 306 305 304 303 303 302 302 301 301 300 300 300 299 299 299 298 298 297 297 297 297 296 296 297 297 297 297 297 297 296 296 295 294 294 293 293
90 89 87 86 84 83 81 80 78 75 73 70 66 62 57 51 44 37 28 18 5 353 343 335 328 324 320 318 316 314 313 311 310 309 308 307 306 305 304 304 303 302 302 302 302 302 301 301 301 300 300 300 300 300 300 301 301 301 301 302 301 301 300 299 298 297 297 296 296
86 85 83 81 80 79 77 75 73 69 66 62 58 53 46 39 31 21 12 2 351 343 337 332 329 325 323 320 318 316 314 312 311 309 308 307 306 306 305 305 304 305 305 305 305 305 305 305 305 305 305 305 305 306 306 306 307 307 307 307 306 305 304 303 303 302 302 301 301
85 84 82 81 79 78 75 72 69 64 60 55 49 42 33 24 16 8 359 350 344 338 334 331 328 325 322 320 318 316 315 312 312 311 310 310 309 309 309 309 310 310 310 311 311 311 310 310 310 310 310 310 310 310 310 310 310 310 310 309 308 307 306 305 305 304 304 304 303
85 83 81 79 77 74 70 66 62 56 50 42 34 24 17 9 2 356 348 342 337 334 331 327 324 322 320 319 318 317 316 316 315 315 316 316 316 316 316 316 316 316 316 316 315 315 314 314 314 313 313 312 312 311 311 310 310 309 309 308 307 306 305 305 304 303 303 302 301
81 79 77 73 69 63 59 54 47 39 31 23 16 10 3 358 351 345 339 335 331 328 325 323 321 321 321 321 320 320 320 321 321 321 321 322 322 321 321 320 320 319 319 318 318 317 316 315 314 314 313 311 310 309 308 308 307 306 306 305 304 303 303 302 302 301 300 299 299
74 71 67 62 56 49 44 36 28 21 15 9 3 358 353 347 341 336 332 329 327 325 324 324 325 325 325 325 325 325 325 325 324 324 324 324 323 322 322 321 320 319 318 318 317 316 315 314 313 311 310 308 307 306 305 304 304 303 303 302 302 301 301 300 299 299 298 298 298
66 62 56 50 43 36 29 22 15 9 3 358 353 349 344 340 337 334 332 331 330 330 330 330 330 330 329 328 328 328 327 326 325 324 323 323 322 321 320 319 318 317 316 316 315 314 312 311 310 308 307 305 304 303 302 302 302 302 301 301 301 300 299 299 298 298 298 299 299
59 53 46 38 30 24 17 11 5 360 355 351 348 345 343 341 340 339 338 336 335 335 333 332 331 330 329 328 328 327 325 324 323 322 321 320 320 319 318 317 316 315 314 313 312 311 310 309 307 306 304 303 302 301 301 301 301 302 302 301 301 300 300 300 300 300 301 302 303
50 43 34 26 19 13 8 2 359 355 353 351 350 348 346 344 343 341 340 337 335 333 331 329 328 327 326 326 325 324 323 322 321 320 319 318 318 317 316 315 314 313 312 311 310 309 308 307 306 304 303 302 301 301 301 301 302 302 302 302 301 301 301 301 302 303 304 305 306
37 29 22 15 10 6 3 0 358 356 354 352 350 348 345 343 340 338 336 334 332 330 329 327 326 325 324 323 322 321 321 320 319 318 318 317 316 315 315 314 313 312 311 310 309 308 307 306 305 304 303 302 301 301 302 302 302 302 302 302 302 303 303 304 305 305 307 308 308
24 18 13 9 6 4 1 359 357 355 352 350 347 344 341 338 335 333 331 329 328 327 326 325 324 323 322 321 321 320 319 318 318 317 316 316 315 314 314 313 312 311 310 309 308 308 307 306 305 304 303 303 302 302 302 302 302 302 302 303 303 304 305 306 306 307 307 308 308
16 12 8 6 3 1 359 356 353 350 347 345 342 338 336 333 330 329 327 326 325 324 323 322 321 320 319 319 319 318 318 317 317 316 315 315 314 313 312 312 311 311 309 309 308 307 307 306 305 304 304 303 302 302 302 302 302 302 303 304 305 305 306 306 306 306 307 307 307
11 8 5 3 360 357 354 351 348 345 342 339 335 333 330 328 326 325 324 323 322 321 320 319 318 317 317 317 317 317 317 316 316 315 315 314 313 313 312 312 311 310 309 308 308 307 307 306 305 304 304 303 302 302 302 302 303 303 304 304 304 305 305 305 305 305 306 306 307
7 4 1 358 355 352 348 345 342 339 336 332 329 327 325 324 323 322 321 321 320 319 318 318 317 316 316 316 316 316 316 315 315 314 314 313 313 312 312 311 311 310 309 308 307 307 306 306 305 304 303 303 302 302 303 303 303 303 303 303 303 303 303 304 304 305 305 305 306
2 358 355 352 349 345 342 338 335 332 329 326 324 323 322 322 321 321 320 320 319 319 318 318 317 317 316 315 315 315 315 314 314 313 313 313 312 312 311 311 311 310 309 308 307 306 306 305 304 304 303 302 302 302 303 303 302 302 301 301 301 301 302 303 304 305 305 305 305
355 351 348 345 341 338 334 331 328 326 324 323 322 322 321 321 321 321 320 320 319 319 318 317 317 316 315 314 314 313 313 313 313 312 312 312 311 311 311 310 310 310 309 307 306 306 305 304 303 303 303 302 303 303 302 301 300 299 298 298 299 301 302 303 304 305 306 306 305
348 344 341 338 334 330 328 326 324 324 323 323 323 322 322 322 322 321 320 319 319 318 317 316 316 315 314 313 312 312 312 311 311 311 311 310 310 310 310 310 309 309 308 307 306 305 304 303 303 303 303 303 303 303 301 297 295 295 295 296 298 301 303 304 304 304 305 305 305